Year,Month,Day,Hour,Minute,Value (Times are PST for temperature in C)
2008,07,29,00,00,15.80
2008,07,29,00,01,15.80
2008,07,29,00,02,15.80
2008,07,29,00,03,15.80
2008,07,29,00,04,15.80
2008,07,29,00,05,15.80
2008,07,29,00,06,15.80
2008,07,29,00,07,15.80
2008,07,29,00,08,15.80
2008,07,29,00,09,15.80
2008,07,29,00,10,15.90
2008,07,29,00,11,15.90
2008,07,29,00,12,15.90
2008,07,29,00,13,16.00
2008,07,29,00,14,16.00
2008,07,29,00,15,16.10
2008,07,29,00,16,16.20
2008,07,29,00,17,16.20
2008,07,29,00,18,16.30
2008,07,29,00,19,16.30
2008,07,29,00,20,16.30
2008,07,29,00,21,16.40
2008,07,29,00,22,16.40
2008,07,29,00,23,16.30
2008,07,29,00,24,16.30
2008,07,29,00,25,16.30
2008,07,29,00,26,16.20
2008,07,29,00,27,16.20
2008,07,29,00,28,16.20
2008,07,29,00,29,16.10
2008,07,29,00,30,16.10
2008,07,29,00,31,16.10
2008,07,29,00,32,16.10
2008,07,29,00,33,16.10
2008,07,29,00,34,16.10
2008,07,29,00,35,16.10
2008,07,29,00,36,16.10
2008,07,29,00,37,16.10
2008,07,29,00,38,16.00
2008,07,29,00,39,16.00
2008,07,29,00,40,15.90
2008,07,29,00,41,15.90
2008,07,29,00,42,15.90
2008,07,29,00,43,15.90
2008,07,29,00,44,15.80
2008,07,29,00,45,15.80
2008,07,29,00,46,15.80
2008,07,29,00,47,15.80
2008,07,29,00,48,15.80
2008,07,29,00,49,15.70
2008,07,29,00,50,15.70
2008,07,29,00,51,15.70
2008,07,29,00,52,15.70
2008,07,29,00,53,15.60
2008,07,29,00,54,15.60
2008,07,29,00,55,15.60
2008,07,29,00,56,15.60
2008,07,29,00,57,15.60
2008,07,29,00,58,15.60
2008,07,29,00,59,15.60
2008,07,29,01,00,15.60
2008,07,29,01,01,15.60
2008,07,29,01,02,15.50
2008,07,29,01,03,15.50
2008,07,29,01,04,15.50
2008,07,29,01,05,15.50
2008,07,29,01,06,15.50
2008,07,29,01,07,15.40
2008,07,29,01,08,15.40
2008,07,29,01,09,15.40
2008,07,29,01,10,15.40
2008,07,29,01,11,15.40
2008,07,29,01,12,15.40
2008,07,29,01,13,15.30
2008,07,29,01,14,15.30
2008,07,29,01,15,15.30
2008,07,29,01,16,15.30
2008,07,29,01,17,15.30
2008,07,29,01,18,15.30
2008,07,29,01,19,15.20
2008,07,29,01,20,15.20
2008,07,29,01,21,15.20
2008,07,29,01,22,15.20
2008,07,29,01,23,15.20
2008,07,29,01,24,15.20
2008,07,29,01,25,15.20
2008,07,29,01,26,15.20
2008,07,29,01,27,15.20
2008,07,29,01,28,15.10
2008,07,29,01,29,15.10
2008,07,29,01,30,15.10
2008,07,29,01,31,15.00
2008,07,29,01,32,15.00
2008,07,29,01,33,15.00
2008,07,29,01,34,15.00
2008,07,29,01,35,15.00
2008,07,29,01,36,15.00
2008,07,29,01,37,15.00
2008,07,29,01,38,15.00
2008,07,29,01,39,15.00
2008,07,29,01,40,15.00
2008,07,29,01,41,15.00
2008,07,29,01,42,15.00
2008,07,29,01,43,15.00
2008,07,29,01,44,15.00
2008,07,29,01,45,15.00
2008,07,29,01,46,15.00
2008,07,29,01,47,15.00
2008,07,29,01,48,15.00
2008,07,29,01,49,15.00
2008,07,29,01,50,15.00
2008,07,29,01,51,15.00
2008,07,29,01,52,15.00
2008,07,29,01,53,14.90
2008,07,29,01,54,14.90
2008,07,29,01,55,14.90
2008,07,29,01,56,14.80
2008,07,29,01,57,14.80
2008,07,29,01,58,14.80
2008,07,29,01,59,14.80
2008,07,29,02,00,14.80
2008,07,29,02,01,14.80
2008,07,29,02,02,14.80
2008,07,29,02,03,14.80
2008,07,29,02,04,14.70
2008,07,29,02,05,14.70
2008,07,29,02,06,14.70
2008,07,29,02,07,14.70
2008,07,29,02,08,14.70
2008,07,29,02,09,14.70
2008,07,29,02,10,14.60
2008,07,29,02,11,14.60
2008,07,29,02,12,14.60
2008,07,29,02,13,14.60
2008,07,29,02,14,14.60
2008,07,29,02,15,14.60
2008,07,29,02,16,14.60
2008,07,29,02,17,14.60
2008,07,29,02,18,14.60
2008,07,29,02,19,14.50
2008,07,29,02,20,14.50
2008,07,29,02,21,14.50
2008,07,29,02,22,14.50
2008,07,29,02,23,14.50
2008,07,29,02,24,14.50
2008,07,29,02,25,14.40
2008,07,29,02,26,14.40
2008,07,29,02,27,14.40
2008,07,29,02,28,14.40
2008,07,29,02,29,14.40
2008,07,29,02,30,14.40
2008,07,29,02,31,14.30
2008,07,29,02,32,14.30
2008,07,29,02,33,14.30
2008,07,29,02,34,14.30
2008,07,29,02,35,14.30
2008,07,29,02,36,14.30
2008,07,29,02,37,14.30
2008,07,29,02,38,14.30
2008,07,29,02,39,14.30
2008,07,29,02,40,14.30
2008,07,29,02,41,14.30
2008,07,29,02,42,14.30
2008,07,29,02,43,14.30
2008,07,29,02,44,14.30
2008,07,29,02,45,14.30
2008,07,29,02,46,14.30
2008,07,29,02,47,14.30
2008,07,29,02,48,14.20
2008,07,29,02,49,14.20
2008,07,29,02,50,14.20
2008,07,29,02,51,14.20
2008,07,29,02,52,14.20
2008,07,29,02,53,14.20
2008,07,29,02,54,14.20
2008,07,29,02,55,14.20
2008,07,29,02,56,14.20
2008,07,29,02,57,14.20
2008,07,29,02,58,14.20
2008,07,29,02,59,14.20
2008,07,29,03,00,14.20
2008,07,29,03,01,14.20
2008,07,29,03,02,14.20
2008,07,29,03,03,14.20
2008,07,29,03,04,14.20
2008,07,29,03,05,14.20
2008,07,29,03,06,14.20
2008,07,29,03,07,14.20
2008,07,29,03,08,14.20
2008,07,29,03,09,14.20
2008,07,29,03,10,14.20
2008,07,29,03,11,14.20
2008,07,29,03,12,14.20
2008,07,29,03,13,14.10
2008,07,29,03,14,14.10
2008,07,29,03,15,14.10
2008,07,29,03,16,14.10
2008,07,29,03,17,14.10
2008,07,29,03,18,14.10
2008,07,29,03,19,14.10
2008,07,29,03,20,14.00
2008,07,29,03,21,14.00
2008,07,29,03,22,14.00
2008,07,29,03,23,14.00
2008,07,29,03,24,14.00
2008,07,29,03,25,13.90
2008,07,29,03,26,13.90
2008,07,29,03,27,13.90
2008,07,29,03,28,13.90
2008,07,29,03,29,13.90
2008,07,29,03,30,13.90
2008,07,29,03,31,13.90
2008,07,29,03,32,13.90
2008,07,29,03,33,13.90
2008,07,29,03,34,13.90
2008,07,29,03,35,13.90
2008,07,29,03,36,13.90
2008,07,29,03,37,13.90
2008,07,29,03,38,13.90
2008,07,29,03,39,13.90
2008,07,29,03,40,13.90
2008,07,29,03,41,13.90
2008,07,29,03,42,13.90
2008,07,29,03,43,13.90
2008,07,29,03,44,13.90
2008,07,29,03,45,13.90
2008,07,29,03,46,13.90
2008,07,29,03,47,13.90
2008,07,29,03,48,13.90
2008,07,29,03,49,14.00
2008,07,29,03,50,14.00
2008,07,29,03,51,14.00
2008,07,29,03,52,14.00
2008,07,29,03,53,14.00
2008,07,29,03,54,14.10
2008,07,29,03,55,14.10
2008,07,29,03,56,14.10
2008,07,29,03,57,14.10
2008,07,29,03,58,14.10
2008,07,29,03,59,14.10
2008,07,29,04,00,14.10
2008,07,29,04,01,14.10
2008,07,29,04,02,14.10
2008,07,29,04,03,14.10
2008,07,29,04,04,14.10
2008,07,29,04,05,14.10
2008,07,29,04,06,14.10
2008,07,29,04,07,14.10
2008,07,29,04,08,14.10
2008,07,29,04,09,14.20
2008,07,29,04,10,14.20
2008,07,29,04,11,14.20
2008,07,29,04,12,14.20
2008,07,29,04,13,14.20
2008,07,29,04,14,14.20
2008,07,29,04,15,14.20
2008,07,29,04,16,14.20
2008,07,29,04,17,14.20
2008,07,29,04,18,14.20
2008,07,29,04,19,14.20
2008,07,29,04,20,14.20
2008,07,29,04,21,14.20
2008,07,29,04,22,14.20
2008,07,29,04,23,14.20
2008,07,29,04,24,14.20
2008,07,29,04,25,14.20
2008,07,29,04,26,14.20
2008,07,29,04,27,14.20
2008,07,29,04,28,14.20
2008,07,29,04,29,14.20
2008,07,29,04,30,14.20
2008,07,29,04,31,14.20
2008,07,29,04,32,14.20
2008,07,29,04,33,14.20
2008,07,29,04,34,14.20
2008,07,29,04,35,14.20
2008,07,29,04,36,14.20
2008,07,29,04,37,14.20
2008,07,29,04,38,14.20
2008,07,29,04,39,14.20
2008,07,29,04,40,14.20
2008,07,29,04,41,14.20
2008,07,29,04,42,14.20
2008,07,29,04,43,14.20
2008,07,29,04,44,14.20
2008,07,29,04,45,14.10
2008,07,29,04,46,14.10
2008,07,29,04,47,14.10
2008,07,29,04,48,14.10
2008,07,29,04,49,14.00
2008,07,29,04,50,14.00
2008,07,29,04,51,13.90
2008,07,29,04,52,13.90
2008,07,29,04,53,13.90
2008,07,29,04,54,13.90
2008,07,29,04,55,13.90
2008,07,29,04,56,13.80
2008,07,29,04,57,13.80
2008,07,29,04,58,13.80
2008,07,29,04,59,13.80
2008,07,29,05,00,13.80
2008,07,29,05,01,13.80
2008,07,29,05,02,13.80
2008,07,29,05,03,13.80
2008,07,29,05,04,13.80
2008,07,29,05,05,13.80
2008,07,29,05,06,13.80
2008,07,29,05,07,13.80
2008,07,29,05,08,13.80
2008,07,29,05,09,13.80
2008,07,29,05,10,13.80
2008,07,29,05,11,13.80
2008,07,29,05,12,13.80
2008,07,29,05,13,13.80
2008,07,29,05,14,13.80
2008,07,29,05,15,13.80
2008,07,29,05,16,13.70
2008,07,29,05,17,13.70
2008,07,29,05,18,13.70
2008,07,29,05,19,13.70
2008,07,29,05,20,13.70
2008,07,29,05,21,13.70
2008,07,29,05,22,13.70
2008,07,29,05,23,13.70
2008,07,29,05,24,13.70
2008,07,29,05,25,13.70
2008,07,29,05,26,13.70
2008,07,29,05,27,13.70
2008,07,29,05,28,13.70
2008,07,29,05,29,13.70
2008,07,29,05,30,13.70
2008,07,29,05,31,13.70
2008,07,29,05,32,13.70
2008,07,29,05,33,13.70
2008,07,29,05,34,13.70
2008,07,29,05,35,13.70
2008,07,29,05,36,13.70
2008,07,29,05,37,13.70
2008,07,29,05,38,13.70
2008,07,29,05,39,13.70
2008,07,29,05,40,13.70
2008,07,29,05,41,13.70
2008,07,29,05,42,13.70
2008,07,29,05,43,13.70
2008,07,29,05,44,13.60
2008,07,29,05,45,13.60
2008,07,29,05,46,13.60
2008,07,29,05,47,13.60
2008,07,29,05,48,13.60
2008,07,29,05,49,13.60
2008,07,29,05,50,13.60
2008,07,29,05,51,13.50
2008,07,29,05,52,13.50
2008,07,29,05,53,13.50
2008,07,29,05,54,13.50
2008,07,29,05,55,13.50
2008,07,29,05,56,13.50
2008,07,29,05,57,13.50
2008,07,29,05,58,13.40
2008,07,29,05,59,13.40
2008,07,29,06,00,13.40
2008,07,29,06,01,13.40
2008,07,29,06,02,13.40
2008,07,29,06,03,13.30
2008,07,29,06,04,13.30
2008,07,29,06,05,13.30
2008,07,29,06,06,13.30
2008,07,29,06,07,13.30
2008,07,29,06,08,13.30
2008,07,29,06,09,13.20
2008,07,29,06,10,13.20
2008,07,29,06,11,13.20
2008,07,29,06,12,13.20
2008,07,29,06,13,13.20
2008,07,29,06,14,13.20
2008,07,29,06,15,13.20
2008,07,29,06,16,13.20
2008,07,29,06,17,13.10
2008,07,29,06,18,13.10
2008,07,29,06,19,13.10
2008,07,29,06,20,13.10
2008,07,29,06,21,13.10
2008,07,29,06,22,13.10
2008,07,29,06,23,13.10
2008,07,29,06,24,13.10
2008,07,29,06,25,13.10
2008,07,29,06,26,13.10
2008,07,29,06,27,13.10
2008,07,29,06,28,13.10
2008,07,29,06,29,13.10
2008,07,29,06,30,13.10
2008,07,29,06,31,13.10
2008,07,29,06,32,13.10
2008,07,29,06,33,13.10
2008,07,29,06,34,13.10
2008,07,29,06,35,13.10
2008,07,29,06,36,13.00
2008,07,29,06,37,13.00
2008,07,29,06,38,13.00
2008,07,29,06,39,13.00
2008,07,29,06,40,13.00
2008,07,29,06,41,13.00
2008,07,29,06,42,13.00
2008,07,29,06,43,13.00
2008,07,29,06,44,12.90
2008,07,29,06,45,12.90
2008,07,29,06,46,12.90
2008,07,29,06,47,12.90
2008,07,29,06,48,12.90
2008,07,29,06,49,12.90
2008,07,29,06,50,12.80
2008,07,29,06,51,12.80
2008,07,29,06,52,12.80
2008,07,29,06,53,12.80
2008,07,29,06,54,12.80
2008,07,29,06,55,12.70
2008,07,29,06,56,12.70
2008,07,29,06,57,12.70
2008,07,29,06,58,12.70
2008,07,29,06,59,12.70
2008,07,29,07,00,12.70
2008,07,29,07,01,12.70
2008,07,29,07,02,12.70
2008,07,29,07,03,12.70
2008,07,29,07,04,12.70
2008,07,29,07,05,12.70
2008,07,29,07,06,12.60
2008,07,29,07,07,12.60
2008,07,29,07,08,12.60
2008,07,29,07,09,12.50
2008,07,29,07,10,12.50
2008,07,29,07,11,12.40
2008,07,29,07,12,12.30
2008,07,29,07,13,12.30
2008,07,29,07,14,12.30
2008,07,29,07,15,12.20
2008,07,29,07,16,12.20
2008,07,29,07,17,12.10
2008,07,29,07,18,12.10
2008,07,29,07,19,12.10
2008,07,29,07,20,12.00
2008,07,29,07,21,12.00
2008,07,29,07,22,12.00
2008,07,29,07,23,12.00
2008,07,29,07,24,12.00
2008,07,29,07,25,11.90
2008,07,29,07,26,11.90
2008,07,29,07,27,11.90
2008,07,29,07,28,11.90
2008,07,29,07,29,11.90
2008,07,29,07,30,11.90
2008,07,29,07,31,11.90
2008,07,29,07,32,11.90
2008,07,29,07,33,11.90
2008,07,29,07,34,11.90
2008,07,29,07,35,11.90
2008,07,29,07,36,11.90
2008,07,29,07,37,11.90
2008,07,29,07,38,11.90
2008,07,29,07,39,11.90
2008,07,29,07,40,11.80
2008,07,29,07,41,11.90
2008,07,29,07,42,11.80
2008,07,29,07,43,11.80
2008,07,29,07,44,11.80
2008,07,29,07,45,11.90
2008,07,29,07,46,11.90
2008,07,29,07,47,11.90
2008,07,29,07,48,11.90
2008,07,29,07,49,11.90
2008,07,29,07,50,11.90
2008,07,29,07,51,11.90
2008,07,29,07,52,11.90
2008,07,29,07,53,11.90
2008,07,29,07,54,11.90
2008,07,29,07,55,11.90
2008,07,29,07,56,11.90
2008,07,29,07,57,12.00
2008,07,29,07,58,12.00
2008,07,29,07,59,12.00
2008,07,29,08,00,12.00
2008,07,29,08,01,12.00
2008,07,29,08,02,12.00
2008,07,29,08,03,12.00
2008,07,29,08,04,12.10
2008,07,29,08,05,12.10
2008,07,29,08,06,12.10
2008,07,29,08,07,12.10
2008,07,29,08,08,12.10
2008,07,29,08,09,12.10
2008,07,29,08,10,12.10
2008,07,29,08,11,12.20
2008,07,29,08,12,12.20
2008,07,29,08,13,12.20
2008,07,29,08,14,12.20
2008,07,29,08,15,12.20
2008,07,29,08,16,12.20
2008,07,29,08,17,12.20
2008,07,29,08,18,12.20
2008,07,29,08,19,12.20
2008,07,29,08,20,12.20
2008,07,29,08,21,12.30
2008,07,29,08,22,12.30
2008,07,29,08,23,12.30
2008,07,29,08,24,12.30
2008,07,29,08,25,12.30
2008,07,29,08,26,12.30
2008,07,29,08,27,12.30
2008,07,29,08,28,12.30
2008,07,29,08,29,12.30
2008,07,29,08,30,12.40
2008,07,29,08,31,12.40
2008,07,29,08,32,12.40
2008,07,29,08,33,12.40
2008,07,29,08,34,12.40
2008,07,29,08,35,12.40
2008,07,29,08,36,12.40
2008,07,29,08,37,12.50
2008,07,29,08,38,12.50
2008,07,29,08,39,12.50
2008,07,29,08,40,12.50
2008,07,29,08,41,12.50
2008,07,29,08,42,12.50
2008,07,29,08,43,12.50
2008,07,29,08,44,12.60
2008,07,29,08,45,12.60
2008,07,29,08,46,12.60
2008,07,29,08,47,12.60
2008,07,29,08,48,12.60
2008,07,29,08,49,12.60
2008,07,29,08,50,12.60
2008,07,29,08,51,12.60
2008,07,29,08,52,12.60
2008,07,29,08,53,12.60
2008,07,29,08,54,12.60
2008,07,29,08,55,12.60
2008,07,29,08,56,12.60
2008,07,29,08,57,12.60
2008,07,29,08,58,12.60
2008,07,29,08,59,12.60
2008,07,29,09,00,12.60
2008,07,29,09,01,12.60
2008,07,29,09,02,12.60
2008,07,29,09,03,12.60
2008,07,29,09,04,12.60
2008,07,29,09,05,12.70
2008,07,29,09,06,12.70
2008,07,29,09,07,12.70
2008,07,29,09,08,12.70
2008,07,29,09,09,12.70
2008,07,29,09,10,12.70
2008,07,29,09,11,12.70
2008,07,29,09,12,12.70
2008,07,29,09,13,12.70
2008,07,29,09,14,12.60
2008,07,29,09,15,12.60
2008,07,29,09,16,12.70
2008,07,29,09,17,12.70
2008,07,29,09,18,12.70
2008,07,29,09,19,12.70
2008,07,29,09,20,12.70
2008,07,29,09,21,12.60
2008,07,29,09,22,12.60
2008,07,29,09,23,12.60
2008,07,29,09,24,12.60
2008,07,29,09,25,12.60
2008,07,29,09,26,12.60
2008,07,29,09,27,12.60
2008,07,29,09,28,12.70
2008,07,29,09,29,12.60
2008,07,29,09,30,12.60
2008,07,29,09,31,12.60
2008,07,29,09,32,12.60
2008,07,29,09,33,12.60
2008,07,29,09,34,12.70
2008,07,29,09,35,12.70
2008,07,29,09,36,12.70
2008,07,29,09,37,12.70
2008,07,29,09,38,12.70
2008,07,29,09,39,12.70
2008,07,29,09,40,12.70
2008,07,29,09,41,12.70
2008,07,29,09,42,12.70
2008,07,29,09,43,12.70
2008,07,29,09,44,12.80
2008,07,29,09,45,12.80
2008,07,29,09,46,12.80
2008,07,29,09,47,12.70
2008,07,29,09,48,12.70
2008,07,29,09,49,12.80
2008,07,29,09,50,12.80
2008,07,29,09,51,12.80
2008,07,29,09,52,12.80
2008,07,29,09,53,12.80
2008,07,29,09,54,12.80
2008,07,29,09,55,12.80
2008,07,29,09,56,12.80
2008,07,29,09,57,12.80
2008,07,29,09,58,12.80
2008,07,29,09,59,12.80
2008,07,29,10,00,12.80
2008,07,29,10,01,12.80
2008,07,29,10,02,12.80
2008,07,29,10,03,12.80
2008,07,29,10,04,12.80
2008,07,29,10,05,12.80
2008,07,29,10,06,12.80
2008,07,29,10,07,12.80
2008,07,29,10,08,12.80
2008,07,29,10,09,12.80
2008,07,29,10,10,12.80
2008,07,29,10,11,12.80
2008,07,29,10,12,12.80
2008,07,29,10,13,12.80
2008,07,29,10,14,12.80
2008,07,29,10,15,12.80
2008,07,29,10,16,12.80
2008,07,29,10,17,12.80
2008,07,29,10,18,12.80
2008,07,29,10,19,12.80
2008,07,29,10,20,12.80
2008,07,29,10,21,12.80
2008,07,29,10,22,12.80
2008,07,29,10,23,12.80
2008,07,29,10,24,12.80
2008,07,29,10,25,12.80
2008,07,29,10,26,12.80
2008,07,29,10,27,12.80
2008,07,29,10,28,12.80
2008,07,29,10,29,12.80
2008,07,29,10,30,12.80
2008,07,29,10,31,12.90
2008,07,29,10,32,12.90
2008,07,29,10,33,12.90
2008,07,29,10,34,12.90
2008,07,29,10,35,13.00
2008,07,29,10,36,13.00
2008,07,29,10,37,13.00
2008,07,29,10,38,13.10
2008,07,29,10,39,13.10
2008,07,29,10,40,13.10
2008,07,29,10,41,13.10
2008,07,29,10,42,13.20
2008,07,29,10,43,13.20
2008,07,29,10,44,13.20
2008,07,29,10,45,13.10
2008,07,29,10,46,13.20
2008,07,29,10,47,13.20
2008,07,29,10,48,13.20
2008,07,29,10,49,13.20
2008,07,29,10,50,13.30
2008,07,29,10,51,13.30
2008,07,29,10,52,13.30
2008,07,29,10,53,13.30
2008,07,29,10,54,13.40
2008,07,29,10,55,13.40
2008,07,29,10,56,13.40
2008,07,29,10,57,13.40
2008,07,29,10,58,13.40
2008,07,29,10,59,13.40
2008,07,29,11,00,13.40
2008,07,29,11,01,13.40
2008,07,29,11,02,13.50
2008,07,29,11,03,13.50
2008,07,29,11,04,13.50
2008,07,29,11,05,13.60
2008,07,29,11,06,13.60
2008,07,29,11,07,13.60
2008,07,29,11,08,13.70
2008,07,29,11,09,13.70
2008,07,29,11,10,13.70
2008,07,29,11,11,13.70
2008,07,29,11,12,13.70
2008,07,29,11,13,13.70
2008,07,29,11,14,13.70
2008,07,29,11,15,13.70
2008,07,29,11,16,13.70
2008,07,29,11,17,13.70
2008,07,29,11,18,13.70
2008,07,29,11,19,13.80
2008,07,29,11,20,13.80
2008,07,29,11,21,13.80
2008,07,29,11,22,13.80
2008,07,29,11,23,13.80
2008,07,29,11,24,13.70
2008,07,29,11,25,13.70
2008,07,29,11,26,13.70
2008,07,29,11,27,13.70
2008,07,29,11,28,13.70
2008,07,29,11,29,13.70
2008,07,29,11,30,13.70
2008,07,29,11,31,13.80
2008,07,29,11,32,13.90
2008,07,29,11,33,13.90
2008,07,29,11,34,13.90
2008,07,29,11,35,13.90
2008,07,29,11,36,13.90
2008,07,29,11,37,14.00
2008,07,29,11,38,14.00
2008,07,29,11,39,14.00
2008,07,29,11,40,14.00
2008,07,29,11,41,14.00
2008,07,29,11,42,14.10
2008,07,29,11,43,14.10
2008,07,29,11,44,14.10
2008,07,29,11,45,14.10
2008,07,29,11,46,14.10
2008,07,29,11,47,14.10
2008,07,29,11,48,14.10
2008,07,29,11,49,14.10
2008,07,29,11,50,14.10
2008,07,29,11,51,14.10
2008,07,29,11,52,14.10
2008,07,29,11,53,14.10
2008,07,29,11,54,14.10
2008,07,29,11,55,14.10
2008,07,29,11,56,14.10
2008,07,29,11,57,14.10
2008,07,29,11,58,14.10
2008,07,29,11,59,14.10
2008,07,29,12,00,14.10
2008,07,29,12,01,14.10
2008,07,29,12,02,14.20
2008,07,29,12,03,14.20
2008,07,29,12,04,14.20
2008,07,29,12,05,14.30
2008,07,29,12,06,14.30
2008,07,29,12,07,14.30
2008,07,29,12,08,14.30
2008,07,29,12,09,14.30
2008,07,29,12,10,14.30
2008,07,29,12,11,14.20
2008,07,29,12,12,14.20
2008,07,29,12,13,14.20
2008,07,29,12,14,14.20
2008,07,29,12,15,14.30
2008,07,29,12,16,14.30
2008,07,29,12,17,14.30
2008,07,29,12,18,14.30
2008,07,29,12,19,14.30
2008,07,29,12,20,14.30
2008,07,29,12,21,14.40
2008,07,29,12,22,14.40
2008,07,29,12,23,14.40
2008,07,29,12,24,14.40
2008,07,29,12,25,14.40
2008,07,29,12,26,14.40
2008,07,29,12,27,14.40
2008,07,29,12,28,14.40
2008,07,29,12,29,14.40
2008,07,29,12,30,14.50
2008,07,29,12,31,14.50
2008,07,29,12,32,14.50
2008,07,29,12,33,14.60
2008,07,29,12,34,14.60
2008,07,29,12,35,14.60
2008,07,29,12,36,14.60
2008,07,29,12,37,14.60
2008,07,29,12,38,14.60
2008,07,29,12,39,14.50
2008,07,29,12,40,14.50
2008,07,29,12,41,14.50
2008,07,29,12,42,14.50
2008,07,29,12,43,14.50
2008,07,29,12,44,14.50
2008,07,29,12,45,14.60
2008,07,29,12,46,14.60
2008,07,29,12,47,14.60
2008,07,29,12,48,14.60
2008,07,29,12,49,14.60
2008,07,29,12,50,14.60
2008,07,29,12,51,14.60
2008,07,29,12,52,14.60
2008,07,29,12,53,14.60
2008,07,29,12,54,14.60
2008,07,29,12,55,14.70
2008,07,29,12,56,14.60
2008,07,29,12,57,14.70
2008,07,29,12,58,14.60
2008,07,29,12,59,14.60
2008,07,29,13,00,14.60
2008,07,29,13,01,14.70
2008,07,29,13,02,14.70
2008,07,29,13,03,14.70
2008,07,29,13,04,14.70
2008,07,29,13,05,14.70
2008,07,29,13,06,14.70
2008,07,29,13,07,14.70
2008,07,29,13,08,14.70
2008,07,29,13,09,14.70
2008,07,29,13,10,14.70
2008,07,29,13,11,14.70
2008,07,29,13,12,14.70
2008,07,29,13,13,14.60
2008,07,29,13,14,14.60
2008,07,29,13,15,14.50
2008,07,29,13,16,14.50
2008,07,29,13,17,14.50
2008,07,29,13,18,14.40
2008,07,29,13,19,14.40
2008,07,29,13,20,14.40
2008,07,29,13,21,14.40
2008,07,29,13,22,14.40
2008,07,29,13,23,14.40
2008,07,29,13,24,14.40
2008,07,29,13,25,14.40
2008,07,29,13,26,14.40
2008,07,29,13,27,14.40
2008,07,29,13,28,14.50
2008,07,29,13,29,14.50
2008,07,29,13,30,14.50
2008,07,29,13,31,14.50
2008,07,29,13,32,14.50
2008,07,29,13,33,14.50
2008,07,29,13,34,14.60
2008,07,29,13,35,14.60
2008,07,29,13,36,14.60
2008,07,29,13,37,14.60
2008,07,29,13,38,14.60
2008,07,29,13,39,14.60
2008,07,29,13,40,14.60
2008,07,29,13,41,14.60
2008,07,29,13,42,14.70
2008,07,29,13,43,14.70
2008,07,29,13,44,14.70
2008,07,29,13,45,14.70
2008,07,29,13,46,14.70
2008,07,29,13,47,14.60
2008,07,29,13,48,14.60
2008,07,29,13,49,14.60
2008,07,29,13,50,14.60
2008,07,29,13,51,14.60
2008,07,29,13,52,14.60
2008,07,29,13,53,14.60
2008,07,29,13,54,14.60
2008,07,29,13,55,14.60
2008,07,29,13,56,14.60
2008,07,29,13,57,14.60
2008,07,29,13,58,14.60
2008,07,29,13,59,14.60
2008,07,29,14,00,14.60
2008,07,29,14,01,14.50
2008,07,29,14,02,14.50
2008,07,29,14,03,14.50
2008,07,29,14,04,14.50
2008,07,29,14,05,14.60
2008,07,29,14,06,14.50
2008,07,29,14,07,14.50
2008,07,29,14,08,14.40
2008,07,29,14,09,14.40
2008,07,29,14,10,14.40
2008,07,29,14,11,14.40
2008,07,29,14,12,14.30
2008,07,29,14,13,14.30
2008,07,29,14,14,14.30
2008,07,29,14,15,14.30
2008,07,29,14,16,14.30
2008,07,29,14,17,14.30
2008,07,29,14,18,14.30
2008,07,29,14,19,14.30
2008,07,29,14,20,14.30
2008,07,29,14,21,14.30
2008,07,29,14,22,14.30
2008,07,29,14,23,14.30
2008,07,29,14,24,14.30
2008,07,29,14,25,14.30
2008,07,29,14,26,14.30
2008,07,29,14,27,14.30
2008,07,29,14,28,14.30
2008,07,29,14,29,14.30
2008,07,29,14,30,14.30
2008,07,29,14,31,14.30
2008,07,29,14,32,14.30
2008,07,29,14,33,14.40
2008,07,29,14,34,14.40
2008,07,29,14,35,14.40
2008,07,29,14,36,14.30
2008,07,29,14,37,14.40
2008,07,29,14,38,14.40
2008,07,29,14,39,14.40
2008,07,29,14,40,14.40
2008,07,29,14,41,14.50
2008,07,29,14,42,14.50
2008,07,29,14,43,14.60
2008,07,29,14,44,14.60
2008,07,29,14,45,14.60
2008,07,29,14,46,14.60
2008,07,29,14,47,14.60
2008,07,29,14,48,14.70
2008,07,29,14,49,14.70
2008,07,29,14,50,14.80
2008,07,29,14,51,14.80
2008,07,29,14,52,14.80
2008,07,29,14,53,14.90
2008,07,29,14,54,14.90
2008,07,29,14,55,14.90
2008,07,29,14,56,14.90
2008,07,29,14,57,14.90
2008,07,29,14,58,14.90
2008,07,29,14,59,15.00
2008,07,29,15,00,15.00
2008,07,29,15,01,15.00
2008,07,29,15,02,15.00
2008,07,29,15,03,15.00
2008,07,29,15,04,15.00
2008,07,29,15,05,15.00
2008,07,29,15,06,14.90
2008,07,29,15,07,14.90
2008,07,29,15,08,14.90
2008,07,29,15,09,14.90
2008,07,29,15,10,14.90
2008,07,29,15,11,14.90
2008,07,29,15,12,14.90
2008,07,29,15,13,15.00
2008,07,29,15,14,15.00
2008,07,29,15,15,15.00
2008,07,29,15,16,15.00
2008,07,29,15,17,15.00
2008,07,29,15,18,15.00
2008,07,29,15,19,15.00
2008,07,29,15,20,15.00
2008,07,29,15,21,15.00
2008,07,29,15,22,15.00
2008,07,29,15,23,15.10
2008,07,29,15,24,15.10
2008,07,29,15,25,15.10
2008,07,29,15,26,15.10
2008,07,29,15,27,15.10
2008,07,29,15,28,15.10
2008,07,29,15,29,15.10
2008,07,29,15,30,15.10
2008,07,29,15,31,15.00
2008,07,29,15,32,15.10
2008,07,29,15,33,15.10
2008,07,29,15,34,15.10
2008,07,29,15,35,15.10
2008,07,29,15,36,15.10
2008,07,29,15,37,15.20
2008,07,29,15,38,15.20
2008,07,29,15,39,15.20
2008,07,29,15,40,15.20
2008,07,29,15,41,15.20
2008,07,29,15,42,15.20
2008,07,29,15,43,15.20
2008,07,29,15,44,15.20
2008,07,29,15,45,15.20
2008,07,29,15,46,15.20
2008,07,29,15,47,15.30
2008,07,29,15,48,15.30
2008,07,29,15,49,15.30
2008,07,29,15,50,15.30
2008,07,29,15,51,15.30
2008,07,29,15,52,15.30
2008,07,29,15,53,15.30
2008,07,29,15,54,15.30
2008,07,29,15,55,15.30
2008,07,29,15,56,15.30
2008,07,29,15,57,15.30
2008,07,29,15,58,15.40
2008,07,29,15,59,15.40
2008,07,29,16,00,15.40
2008,07,29,16,01,15.40
2008,07,29,16,02,15.40
2008,07,29,16,03,15.50
2008,07,29,16,04,15.50
2008,07,29,16,05,15.60
2008,07,29,16,06,15.70
2008,07,29,16,07,15.70
2008,07,29,16,08,15.70
2008,07,29,16,09,15.70
2008,07,29,16,10,15.70
2008,07,29,16,11,15.70
2008,07,29,16,12,15.70
2008,07,29,16,13,15.80
2008,07,29,16,14,15.80
2008,07,29,16,15,15.90
2008,07,29,16,16,15.90
2008,07,29,16,17,15.90
2008,07,29,16,18,15.90
2008,07,29,16,19,15.90
2008,07,29,16,20,15.90
2008,07,29,16,21,15.90
2008,07,29,16,22,15.90
2008,07,29,16,23,15.90
2008,07,29,16,24,15.90
2008,07,29,16,25,15.90
2008,07,29,16,26,16.00
2008,07,29,16,27,16.00
2008,07,29,16,28,16.10
2008,07,29,16,29,16.10
2008,07,29,16,30,16.10
2008,07,29,16,31,16.10
2008,07,29,16,32,16.20
2008,07,29,16,33,16.20
2008,07,29,16,34,16.20
2008,07,29,16,35,16.20
2008,07,29,16,36,16.20
2008,07,29,16,37,16.20
2008,07,29,16,38,16.20
2008,07,29,16,39,16.20
2008,07,29,16,40,16.20
2008,07,29,16,41,16.20
2008,07,29,16,42,16.20
2008,07,29,16,43,16.30
2008,07,29,16,44,16.30
2008,07,29,16,45,16.30
2008,07,29,16,46,16.40
2008,07,29,16,47,16.40
2008,07,29,16,48,16.50
2008,07,29,16,49,16.50
2008,07,29,16,50,16.60
2008,07,29,16,51,16.60
2008,07,29,16,52,16.70
2008,07,29,16,53,16.80
2008,07,29,16,54,16.80
2008,07,29,16,55,16.90
2008,07,29,16,56,16.90
2008,07,29,16,57,17.00
2008,07,29,16,58,17.00
2008,07,29,16,59,17.10
2008,07,29,17,00,17.20
2008,07,29,17,01,17.20
2008,07,29,17,02,17.30
2008,07,29,17,03,17.30
2008,07,29,17,04,17.40
2008,07,29,17,05,17.40
2008,07,29,17,06,17.50
2008,07,29,17,07,17.60
2008,07,29,17,08,17.60
2008,07,29,17,09,17.70
2008,07,29,17,10,17.70
2008,07,29,17,11,17.70
2008,07,29,17,12,17.70
2008,07,29,17,13,17.80
2008,07,29,17,14,17.80
2008,07,29,17,15,17.80
2008,07,29,17,16,17.80
2008,07,29,17,17,17.80
2008,07,29,17,18,17.80
2008,07,29,17,19,17.80